Location: Ahausen
(50.4985°N, 8.2722°E)
Time: 07:04:30
(UTC+00:00)

KORONAS-FOTON - Pass Details

Date: 18 September 2020
Orbit: 506 x 531 km, 82.4° (Epoch: 20 October)

Event Time Altitude Azimuth Distance (km) Brightness Sun altitude
Rises 19:19:24 0° 351° (N) 2,688 7.9 -17.2°
Reaches altitude 10° 19:21:34 10° 354° (N) 1,794 6.9 -17.5°
Maximum altitude 19:25:30 68° 78° (ENE) 579 3.8 -18.0°
Enters shadow 19:26:45 40° 147° (SSE) 791 4.3 -18.2°
